Location: Unspecified
(48.8656°N, 0.0000°E)
Time: 12:57:01
(UTC+00:00)

Transit 2A Rocket - Pass Details

Date: 23 June 2019
Orbit: 588 x 915 km, 66.7° (Epoch: 20 July)

Event Time Altitude Azimuth Distance (km) Brightness Sun altitude
Rises 15:00:08 0° 315° (NW) 3,455 8.6 46.9°
Reaches altitude 10° 15:04:14 10° 342° (NNW) 2,450 7.7 46.3°
Maximum altitude 15:06:48 13° 9° (N) 2,190 7.3 45.9°
Drops below altitude 10° 15:09:17 10° 36° (NE) 2,350 7.3 45.5°
Sets 15:13:03 0° 64° (ENE) 3,192 7.8 44.9°
